Snowfall_Accumulation
1.6 2.5 8.5 13.1 15.5 13.3 25.8 18.4 32.0 29.7 26.0 28.5 28.3 31.7 26.7 23.2 18.6 12.7 11.2 11.9 7.7 4.1 2.3 0.9 0.6 0.4 0.2 0.2 0.1 0.1 0.1 0.1 0.1 0.0 0.0 0.0 0.0 0.0 0.0 0.0 0.0 0.0 0.0 0.0
6.5 2.7 6.7 12.3 7.9 9.4 13.2 15.3 19.3 17.4 17.2 19.5 23.3 19.4 20.2 18.1 15.8 16.5 20.1 17.5 9.8 6.3 2.4 1.3 1.3 1.4 1.0 0.5 0.2 0.3 0.8 0.3 0.0 0.1 0.1 0.0 0.1 0.0 0.0 0.1 0.0 0.0 0.0 0.0
8.9 2.0 4.9 17.2 20.3 14.7 15.2 19.6 24.6 35.5 34.2 24.5 23.5 21.9 24.7 24.5 27.0 27.6 30.7 24.5 17.3 9.7 5.9 3.2 2.2 2.2 2.3 1.0 0.9 0.9 0.8 0.3 0.2 0.1 0.2 0.0 0.0 0.0 0.1 0.1 0.0 0.0 0.0 0.0
10.3 4.6 22.9 13.0 6.1 9.8 15.1 17.9 18.2 19.6 23.5 24.6 22.8 15.6 16.9 22.3 33.6 34.6 38.2 31.6 22.9 16.3 8.9 3.5 1.7 1.5 1.5 1.3 1.8 1.4 1.0 0.3 0.4 0.4 0.5 0.1 0.3 0.5 0.3 0.1 0.6 0.2 0.4 4.5
11.1 5.7 2.3 1.7 1.7 4.6 12.8 16.4 10.1 13.6 12.4 12.5 9.0 6.5 7.0 6.8 15.5 28.2 38.8 36.9 30.7 25.0 14.8 7.2 3.5 2.4 2.5 1.5 1.2 0.8 1.1 1.3 0.6 1.0 0.9 0.9 2.9 2.3 5.0 2.6 7.4 5.1 3.5 2.6
7.9 11.8 5.6 3.0 0.2 0.3 2.2 15.7 2.4 9.8 12.5 13.1 11.0 14.1 12.1 11.3 17.9 23.8 30.3 38.1 43.1 27.9 12.6 6.5 3.1 2.4 2.1 1.6 1.5 0.6 0.7 0.9 0.8 0.4 0.5 1.9 4.8 4.5 3.9 4.3 5.0 3.4 2.6 1.1
4.7 12.1 2.4 0.1 0.0 0.3 4.3 8.5 5.2 9.0 12.6 15.4 21.9 24.9 17.8 14.6 15.8 19.2 26.3 37.2 37.1 24.8 12.4 6.1 4.2 4.2 1.4 1.9 1.8 1.4 2.0 1.8 1.3 0.9 1.4 1.1 4.2 3.3 2.4 2.0 1.7 1.7 1.0 0.3
4.4 12.5 5.3 0.1 0.0 2.0 4.2 0.9 4.0 6.6 9.7 14.4 9.9 8.2 8.2 9.6 12.6 18.6 26.1 39.3 45.1 35.3 21.6 13.8 9.8 6.5 5.3 5.6 2.6 1.6 2.7 1.8 3.1 2.2 1.3 1.0 0.3 0.3 1.9 2.2 4.1 2.9 2.3 1.4
1.6 0.5 0.4 0.2 0.3 0.2 0.0 1.6 2.3 8.0 5.5 8.1 6.2 5.2 4.6 7.2 9.0 15.0 22.4 38.9 52.3 49.0 36.8 16.8 11.1 8.2 9.3 6.2 5.1 5.4 4.0 5.2 7.1 6.2 5.4 4.0 2.9 3.6 6.2 5.0 5.4 7.0 4.3 2.0
0.9 0.7 1.1 0.9 0.0 0.0 0.2 1.2 1.9 4.0 4.5 3.1 5.0 2.7 2.5 2.8 6.3 11.5 16.7 34.8 49.4 44.7 34.0 19.6 17.2 15.3 9.5 6.6 4.8 4.9 7.2 8.9 8.0 8.5 7.7 8.8 7.6 6.8 7.0 8.9 9.1 8.5 6.7 5.9
0.5 2.4 1.7 0.7 0.2 0.3 0.6 1.1 0.8 0.2 1.2 3.0 3.4 1.3 2.7 2.3 4.1 9.0 14.4 25.0 41.9 49.7 44.0 31.7 23.4 23.7 15.3 11.0 6.4 7.9 8.0 9.6 9.9 9.7 9.7 9.3 8.5 7.9 8.2 6.7 5.5 9.8 8.8 7.7
2.2 0.7 2.4 0.6 0.1 0.1 1.3 1.1 1.2 2.4 1.5 1.4 2.8 3.3 2.3 2.1 2.5 6.5 12.4 19.8 29.9 42.5 43.4 40.7 31.6 25.1 20.7 12.4 7.6 8.8 9.4 8.2 8.1 8.9 9.0 7.8 7.5 8.2 3.4 3.3 3.5 4.0 4.3 6.7
2.8 0.0 0.2 0.2 0.1 0.3 1.6 0.9 2.0 2.5 3.3 4.2 2.9 3.3 2.2 3.1 3.0 1.9 7.8 13.2 19.8 35.2 47.7 47.7 39.1 28.1 20.3 17.2 9.1 8.1 8.5 6.7 6.5 8.4 8.7 9.0 7.5 6.7 10.5 6.0 2.5 2.5 2.4 2.6
0.1 1.6 1.1 0.3 1.6 0.5 1.3 1.2 1.6 2.3 3.0 3.6 4.5 2.5 2.9 3.2 3.3 3.1 8.1 13.7 13.8 19.3 32.7 38.6 33.5 26.4 20.1 17.8 15.6 9.4 8.9 6.2 8.5 8.5 9.4 9.6 9.3 8.6 5.7 6.2 7.7 7.2 2.0 1.8
2.0 1.6 2.6 1.9 1.2 1.3 1.3 1.3 1.5 3.4 4.0 5.6 5.4 7.5 7.5 7.1 7.8 8.1 7.3 6.1 7.5 10.6 19.5 21.6 19.6 26.4 26.8 20.0 17.6 10.7 11.2 10.7 8.3 9.1 8.7 9.5 8.2 8.0 7.1 6.2 5.4 4.5 4.2 2.4
3.5 3.3 3.5 3.2 3.7 3.4 3.0 2.9 3.2 5.7 6.2 8.7 9.3 11.5 11.1 8.3 7.4 6.9 7.1 4.8 5.0 11.4 14.9 19.0 17.1 21.0 21.3 19.0 17.9 16.2 13.3 10.1 7.6 8.0 7.2 7.3 7.2 7.2 7.5 7.3 5.8 4.9 4.2 3.8
6.6 8.9 5.7 5.8 6.4 6.8 7.7 7.6 7.8 9.1 8.8 8.6 11.8 11.0 8.0 6.0 5.1 5.3 6.7 5.3 4.4 8.1 12.3 13.6 17.1 13.7 13.6 14.9 18.4 18.4 17.0 11.5 8.6 5.5 5.3 6.1 7.4 8.3 6.6 7.2 7.9 7.6 6.4 3.8
12.7 12.4 9.1 9.6 10.1 7.6 7.4 7.6 7.8 7.2 9.2 10.1 8.7 7.2 6.8 6.0 9.7 9.2 10.3 7.2 4.0 4.0 5.7 8.2 9.5 8.9 10.6 11.4 13.5 17.8 17.3 16.1 11.4 10.2 8.9 6.9 7.8 9.2 9.5 10.3 8.9 11.5 8.4 6.3
12.3 11.9 11.0 9.9 8.3 7.8 8.0 8.3 8.1 8.4 9.3 8.7 7.0 8.6 7.7 8.7 8.0 7.9 6.8 3.4 3.4 4.2 7.4 5.1 3.9 5.0 6.4 8.2 8.2 12.5 13.5 15.5 14.0 11.3 9.3 9.3 7.9 8.2 9.3 10.3 10.6 11.2 10.3 10.7
12.6 12.4 10.4 9.6 7.0 6.2 7.2 9.5 7.3 6.0 7.3 4.9 3.9 3.7 3.6 4.9 4.4 4.4 2.8 3.5 5.7 10.7 5.1 5.4 4.0 3.8 4.7 6.2 5.6 6.2 12.3 15.3 18.0 15.5 15.1 14.3 13.7 13.7 12.0 12.6 12.0 13.0 13.1 13.8
8.1 7.3 5.4 3.3 3.5 3.1 2.9 2.4 1.7 1.5 1.9 1.7 1.5 2.5 2.9 2.5 1.5 1.1 2.1 2.3 2.9 5.1 3.9 3.4 3.8 5.0 5.2 9.1 6.3 7.1 8.5 14.9 18.8 22.1 22.4 21.8 19.2 17.0 13.3 12.8 13.5 13.2 15.6 15.7
1.3 1.0 1.1 1.5 1.4 1.5 1.7 1.4 1.0 0.9 0.8 0.9 1.2 1.4 1.3 1.0 0.2 0.6 1.3 5.3 2.6 2.7 1.9 3.5 5.0 5.6 8.8 7.4 7.6 7.6 10.0 13.2 20.7 26.4 28.1 26.4 24.4 22.5 19.0 14.9 15.1 15.1 16.3 17.1
1.4 0.7 1.1 1.1 0.8 1.0 1.2 1.3 1.3 1.3 1.3 0.9 1.0 1.7 2.4 1.5 1.3 4.4 5.5 0.9 1.8 2.6 4.0 4.2 5.9 5.7 5.2 6.9 7.2 8.8 12.2 16.7 19.8 24.4 28.2 29.1 28.3 28.8 27.4 24.9 24.1 22.1 23.3 21.3
2.8 1.9 1.3 0.8 0.7 0.7 1.1 1.2 1.5 1.5 1.3 0.9 0.5 1.1 1.9 2.9 1.4 0.9 2.2 1.9 1.2 2.9 2.3 4.5 5.3 5.2 4.9 7.5 9.0 12.9 16.4 18.7 21.1 22.9 27.5 25.8 29.3 29.0 29.7 27.7 25.9 24.2 23.8 22.7
1.7 1.7 1.6 1.0 0.9 1.2 1.1 1.7 1.7 1.5 1.3 1.3 0.7 1.1 1.1 1.0 3.6 2.4 2.3 1.9 1.6 1.2 1.2 2.7 2.6 2.9 4.1 6.6 10.6 13.5 16.1 20.0 23.6 23.4 24.5 26.5 27.6 28.1 27.6 26.7 26.4 24.6 24.0 22.7
2.3 1.8 1.2 0.8 1.0 1.8 2.0 2.3 3.2 2.3 3.4 3.5 2.0 0.7 0.7 1.3 1.3 1.7 1.8 2.1 1.7 1.8 2.2 2.9 2.2 4.2 6.2 8.1 10.1 12.8 14.5 16.5 18.8 20.4 20.8 22.6 22.9 23.2 23.4 22.0 22.8 22.1 21.3 22.7
1.4 1.2 1.7 1.5 0.7 0.2 1.6 3.1 4.5 3.9 3.1 3.6 3.4 1.2 1.0 1.4 1.1 1.9 2.2 2.1 1.4 1.4 2.0 3.4 4.2 6.0 7.2 8.5 8.7 10.0 11.0 12.0 14.0 16.3 16.5 18.2 18.8 20.0 21.5 21.5 21.0 20.2 19.3 19.0